Theta_e
306 308 309 312 315 326 325 325 324 325 326 327 324 325 324 325 327 328 328 328 325 326 325 324 324 326 326 326 325 324 323 323 325 322 322 324 323 321 321 322 321 315 310
302 304 306 307 308 311 317 324 325 325 326 327 326 325 326 325 327 328 329 329 326 326 326 326 326 326 325 324 323 322 322 322 324 319 320 315 316 319 318 318 315 310 306
299 302 302 304 305 305 307 310 315 326 327 327 327 326 325 325 325 325 326 326 327 327 328 327 326 325 325 323 323 324 322 320 322 323 319 313 311 312 314 313 311 306 302
301 301 301 302 304 304 305 306 308 311 314 320 325 324 323 321 323 325 326 326 326 326 327 327 326 325 326 323 323 326 325 323 320 323 324 322 318 311 305 309 307 304 300
299 301 302 303 303 306 305 306 306 307 309 311 314 319 321 322 323 323 323 323 322 321 321 323 323 323 324 324 323 321 318 318 320 318 318 319 317 316 311 304 303 302 299
300 301 303 304 303 304 305 306 305 305 306 308 309 310 310 310 315 317 316 316 317 317 317 318 318 318 319 319 320 319 316 315 316 315 316 315 314 313 312 310 305 301 297
299 300 300 301 302 302 303 304 304 303 304 305 305 307 307 308 308 309 311 311 312 312 312 313 313 314 314 315 316 317 314 314 314 314 316 316 313 314 313 311 306 301 296
297 298 298 299 300 301 301 302 303 302 302 303 304 305 306 307 307 308 308 308 308 308 310 311 311 311 312 313 314 313 312 314 314 313 312 309 307 307 308 309 306 300 296
293 293 295 296 296 296 297 298 299 300 300 300 301 302 303 305 305 306 307 307 307 307 307 308 308 309 309 310 311 309 309 309 309 308 306 305 303 301 302 303 303 304 297
291 292 292 294 295 295 295 297 298 298 299 299 299 300 301 302 304 305 304 304 304 305 305 304 304 305 306 307 307 306 306 304 303 303 302 300 299 298 297 297 298 299 300
290 290 292 293 293 293 293 293 294 295 296 297 298 298 298 300 301 302 302 302 302 301 301 301 302 302 302 303 303 301 301 300 299 299 297 296 296 294 294 294 293 293 294
289 290 290 292 292 292 293 293 293 294 295 297 297 297 298 298 299 299 299 300 299 300 299 300 300 300 301 301 300 299 299 297 295 295 293 293 294 291 291 291 291 289 291
289 290 290 290 291 291 292 292 293 293 294 296 297 297 297 297 297 298 298 298 298 297 297 298 297 297 297 296 296 295 294 293 292 292 291 291 291 289 289 290 289 289 290
288 289 289 289 290 291 291 291 292 293 294 294 294 294 295 296 297 298 297 296 296 295 295 295 295 295 294 293 293 292 291 290 289 289 288 286 286 286 287 287 286 288 286
288 288 288 289 289 289 290 290 290 292 293 293 293 293 294 295 296 296 296 295 294 293 293 293 293 293 292 291 291 291 289 288 287 286 285 285 284 286 287 286 284 285 284
287 288 289 289 289 289 289 290 290 290 292 292 291 292 293 293 294 294 294 294 293 291 292 291 292 291 290 289 291 291 288 288 287 284 284 284 284 285 286 287 287 285 283
287 288 288 289 289 289 290 288 289 290 290 290 291 291 291 292 292 293 293 293 292 291 290 290 291 291 289 290 290 290 288 287 286 285 284 282 283 282 281 283 283 282 285
288 288 288 288 289 289 289 289 289 289 289 289 288 289 288 289 289 290 290 291 291 290 289 289 290 290 289 290 289 289 286 285 284 284 283 282 282 282 281 280 279 279 280
288 289 289 289 288 289 288 288 288 288 288 287 286 286 286 285 285 286 286 287 289 287 287 286 287 287 287 289 289 287 283 283 282 282 282 283 282 283 284 280 279 278 278
289 289 289 289 289 288 287 287 287 287 286 285 285 284 285 285 285 286 285 285 285 286 284 285 285 285 286 289 289 287 282 282 281 281 282 283 283 284 285 280 279 277 276
288 288 288 287 287 286 286 285 285 285 285 284 284 284 284 284 284 284 284 284 285 285 284 285 284 284 284 286 289 289 283 282 281 281 281 281 285 285 285 284 280 280 278
287 286 286 285 285 285 284 284 283 285 284 283 283 282 281 282 284 283 284 284 283 284 284 282 284 283 284 285 289 289 288 286 281 281 281 281 285 286 285 282 283 283 279
284 284 284 284 285 285 284 283 283 283 282 277 276 277 280 281 282 283 284 284 285 285 286 285 285 285 286 283 288 289 289 288 282 281 282 284 285 286 284 284 283 278 274
284 284 284 283 283 283 282 282 282 280 273 275 277 278 278 280 279 282 283 284 285 285 285 285 285 286 286 286 285 283 284 285 283 284 282 282 283 282 279 277 280 277 276
283 282 280 280 279 278 277 276 277 273 274 273 276 277 278 278 280 280 281 282 284 285 285 286 286 286 285 287 287 286 284 283 284 281 281 279 277 276 275 273 272 272 271
279 278 277 275 275 275 274 274 271 270 270 275 277 277 278 278 280 281 283 287 288 289 289 290 288 288 289 289 289 289 288 288 286 281 279 276 276 276 275 274 271 269 268
Wind_Speed
9 10 10 13 11 9 9 11 10 9 7 6 6 4 5 4 2 3 5 5 6 7 6 4 5 5 4 5 5 3 6 3 2 1 4 3 1 5 5 4 6 8 7
11 11 11 13 11 8 10 6 9 10 8 7 6 4 5 3 4 4 4 5 5 6 5 6 5 5 4 5 4 4 3 3 4 4 2 2 0 3 6 5 6 7 6
12 11 13 13 13 14 15 16 12 3 6 5 4 3 3 2 4 4 3 5 7 6 6 6 5 4 3 3 4 5 6 5 4 8 4 3 3 4 2 4 5 6 5
12 10 8 13 7 15 14 19 18 15 11 7 4 5 5 5 5 7 5 4 2 4 2 3 2 0 1 3 3 4 7 7 9 4 7 3 3 3 3 2 3 5 6
14 14 11 10 12 11 14 15 17 17 15 12 11 3 1 1 3 3 5 6 6 6 6 6 5 4 3 4 3 3 10 7 7 4 5 3 0 2 3 3 3 4 4
10 15 15 11 15 13 13 16 16 15 15 13 14 12 12 11 6 5 6 5 5 6 7 6 4 5 5 4 3 4 6 5 6 4 5 4 3 2 3 3 3 4 3
10 7 8 13 15 18 15 11 16 18 14 13 15 14 11 11 13 10 6 8 5 4 4 5 5 5 5 5 6 3 5 2 1 1 3 2 2 3 1 2 3 3 3
7 9 15 14 13 15 11 13 15 15 14 11 12 9 11 6 4 7 6 6 5 4 6 5 7 7 5 2 3 3 2 4 3 6 5 3 3 3 3 1 3 2 2
10 13 13 12 11 9 6 11 12 13 12 9 10 9 9 9 7 7 6 4 2 6 7 6 5 4 4 3 3 3 3 4 4 4 5 3 3 3 3 2 2 2 3
11 9 6 6 5 6 7 9 10 6 7 6 7 7 9 8 8 5 7 6 7 7 5 5 5 5 4 4 4 3 4 4 3 3 5 4 3 3 3 3 3 3 2
6 4 4 3 6 5 7 7 9 8 7 5 4 6 5 5 5 5 7 4 5 5 5 4 4 4 4 5 5 6 5 6 6 6 6 6 4 3 4 3 4 4 3
4 4 6 6 6 6 8 9 8 6 6 6 6 5 4 4 5 6 6 5 6 5 4 4 5 5 5 6 6 5 6 6 7 6 6 4 3 5 4 3 5 4 3
6 5 6 6 6 7 7 7 7 7 6 6 6 7 6 6 6 6 5 5 5 5 6 6 6 5 4 4 5 6 6 7 6 5 5 5 4 4 4 5 4 3 2
6 6 6 6 7 6 7 8 9 8 7 7 6 6 5 5 4 5 5 5 5 5 5 5 4 3 4 5 5 6 6 6 5 5 6 6 6 5 4 4 3 3 3
6 5 5 5 5 6 6 7 7 7 7 7 7 9 8 6 6 5 4 4 4 4 3 4 5 5 6 4 5 5 5 5 6 6 6 6 5 9 8 3 3 2 3
5 5 5 5 6 6 5 5 5 6 6 6 7 6 7 7 7 6 5 6 6 6 6 7 6 6 3 5 6 5 5 5 5 5 4 5 5 7 12 13 13 8 1
4 4 5 5 5 6 6 6 6 6 6 6 6 7 6 6 7 6 6 5 4 4 4 4 3 3 4 4 4 5 3 4 4 5 5 3 3 4 4 9 10 11 11
5 5 4 5 5 3 5 5 5 6 6 6 6 6 6 7 7 6 5 4 3 3 2 2 2 2 2 2 1 3 4 4 3 2 4 4 4 4 5 5 6 6 6
4 4 4 3 3 4 5 6 6 6 6 6 6 6 5 5 5 5 5 4 5 4 3 3 3 2 3 6 7 5 4 4 4 2 2 3 4 5 6 5 7 6 5
5 5 3 1 3 5 5 6 6 5 5 5 5 5 5 6 6 5 4 1 1 2 2 4 3 4 4 7 7 5 3 4 2 3 4 5 5 10 7 5 5 5 5
6 4 4 2 1 2 3 4 4 4 4 4 4 4 4 5 5 4 2 3 3 2 2 4 4 5 5 6 9 9 4 3 3 3 2 2 6 9 9 7 5 4 7
6 4 3 1 1 1 2 3 4 4 5 5 5 5 5 4 4 5 6 5 4 4 5 4 5 4 6 8 9 10 8 5 3 3 2 3 7 9 9 5 7 7 9
5 4 3 1 2 1 1 3 5 6 6 4 5 4 6 5 4 4 6 6 5 6 6 6 7 7 4 4 11 12 12 10 4 3 4 5 5 8 6 8 7 7 4
5 3 3 1 2 1 2 3 5 4 3 5 6 5 5 6 4 3 4 5 7 7 7 8 9 7 7 5 5 5 5 9 6 8 4 6 6 6 5 2 4 4 5
4 4 4 4 4 2 2 4 4 3 4 4 5 5 4 4 5 4 5 5 8 8 7 9 8 8 9 10 11 12 8 7 10 8 5 4 3 4 4 3 2 2 2
3 3 3 3 3 4 4 5 5 2 3 5 5 4 4 4 5 6 8 11 17 17 18 22 17 10 19 15 16 21 22 20 17 5 5 6 5 6 6 5 4 3 4
Wind_Direction
344 340 336 27 332 164 161 165 164 164 165 170 160 166 185 223 231 224 203 214 183 187 189 197 218 229 202 210 221 216 214 231 207 344 266 259 344 118 109 111 97 77 81
358 8 10 35 341 53 65 162 176 174 181 181 166 161 171 202 202 215 202 232 210 200 192 193 214 224 218 218 206 191 214 219 180 199 199 199 81 71 86 92 97 97 86
4 8 27 17 309 44 53 53 27 125 156 156 150 142 149 220 195 223 208 221 208 207 208 225 206 227 179 194 229 218 211 235 221 211 196 199 190 126 100 95 102 97 97
16 10 24 40 323 47 50 57 47 31 24 32 150 168 188 197 199 202 200 198 53 23 359 238 256 332 150 219 236 252 238 223 242 228 209 200 136 150 130 97 82 108 99
13 11 12 36 51 44 49 60 54 42 30 18 46 34 305 251 99 73 79 76 56 40 55 42 66 68 48 34 64 73 55 38 357 24 6 39 340 141 155 149 151 85 86
15 9 26 262 49 46 44 61 60 47 36 19 33 43 41 34 59 61 77 63 62 42 29 17 25 42 41 356 1 18 65 25 54 2 35 352 327 300 213 143 131 140 126
2 344 317 27 31 36 17 45 65 55 32 14 26 26 28 32 46 22 37 67 44 65 33 54 44 35 31 34 301 337 20 318 53 359 41 54 33 317 324 94 126 141 145
354 11 8 22 23 33 359 27 45 64 43 21 20 17 18 41 10 53 35 47 57 19 36 14 30 1 3 344 311 25 358 20 20 42 57 64 23 30 14 25 140 121 131
23 23 13 15 9 7 342 35 26 35 45 20 23 11 32 19 12 23 36 15 359 40 17 5 21 335 328 323 44 63 49 66 67 61 55 67 50 48 44 38 33 124 157
30 32 7 22 9 1 4 38 47 45 33 20 25 352 21 14 23 8 47 13 29 38 20 25 15 348 3 360 59 72 56 69 54 66 72 50 44 51 43 36 34 54 60
40 13 34 23 44 23 32 27 34 21 32 12 36 32 2 29 15 17 35 5 47 42 43 36 31 14 16 21 44 44 48 62 54 45 60 47 41 42 41 41 51 59 52
77 38 35 35 32 28 30 37 36 23 16 354 27 42 14 41 41 36 32 16 37 39 44 40 48 41 30 30 43 49 46 58 57 55 68 53 50 54 41 52 55 58 41
78 63 44 32 25 27 27 35 34 22 19 15 31 32 20 20 35 49 34 35 39 36 38 46 47 43 45 69 61 66 67 65 61 61 67 34 55 56 45 46 56 42 28
72 69 50 40 30 33 22 24 29 19 10 24 32 34 12 28 47 46 50 39 36 39 36 46 66 70 74 72 74 83 81 82 72 62 56 43 36 46 61 82 62 72 58
70 56 66 58 48 40 29 30 26 14 7 18 17 14 358 9 21 29 35 43 50 48 48 45 44 44 42 30 52 75 97 103 81 64 77 71 61 59 59 95 52 62 111
87 56 59 51 39 37 23 29 23 21 14 18 19 9 7 7 8 12 13 16 18 22 24 26 28 37 50 46 59 95 98 106 114 112 102 100 85 68 70 66 65 66 100
98 56 58 59 35 26 14 10 3 13 25 21 13 14 5 8 3 358 7 14 21 17 30 26 21 52 61 56 70 86 103 114 132 143 136 115 123 124 112 94 76 53 51
126 104 68 47 41 22 24 3 2 13 17 19 19 13 8 2 357 360 356 354 4 13 19 34 41 85 115 145 161 105 104 100 96 139 165 174 169 157 131 117 89 62 50
88 69 58 54 20 27 13 11 3 9 13 10 10 360 3 346 353 4 353 344 338 330 319 324 298 254 197 181 186 148 149 156 163 164 151 176 168 179 161 137 116 109 87
108 99 83 21 355 12 14 12 356 353 352 343 332 327 337 344 338 336 330 276 291 290 290 289 277 264 226 208 206 179 156 175 184 207 201 209 185 179 180 151 157 143 144
125 138 159 145 47 16 25 353 337 354 324 318 313 313 305 292 282 293 299 288 299 295 277 260 255 248 242 233 220 216 195 193 190 196 204 204 204 183 186 164 158 169 141
140 133 125 120 314 55 43 346 331 304 330 333 320 305 295 292 302 316 302 302 290 290 290 288 277 252 232 225 228 231 232 235 188 212 186 195 204 197 200 170 168 163 140
154 138 140 59 342 143 73 324 302 326 323 319 299 291 294 286 269 283 298 309 301 281 278 275 278 275 243 245 239 226 224 224 203 183 199 202 192 217 212 187 192 124 117
159 144 117 237 260 26 352 276 312 325 331 317 316 313 303 302 277 250 249 257 266 263 264 264 262 264 262 238 222 230 223 212 185 188 187 178 155 131 107 67 137 141 152
158 158 172 224 237 214 303 308 308 342 316 297 291 290 279 287 293 248 242 235 242 234 246 245 239 239 245 238 214 213 210 199 201 167 161 157 153 156 149 119 122 124 145
162 160 202 229 317 9 307 286 288 305 318 322 317 311 309 308 305 299 296 249 256 259 254 257 262 267 261 261 233 224 224 212 190 186 183 183 187 188 179 176 173 173 185